Location: *
(48.8667°N, 2.3331°E)
Time: 09:33:13
(UTC+00:00)

Cosmos 2061 Rocket - Pass Details

Date: 17 August 2020
Orbit: 966 x 1012 km, 82.9° (Epoch: 23 September)

Event Time Altitude Azimuth Distance (km) Brightness Sun altitude
Exits shadow 23:33:48 - 254° (WSW) 2,943 6.4 -27.9°
Reaches altitude 10° 23:34:47 10° 261° (W) 2,709 6.3 -28.0°
Maximum altitude 23:38:42 17° 301° (WNW) 2,237 6.2 -28.0°
Drops below altitude 10° 23:42:38 10° 340° (NNW) 2,721 7.2 -28.1°
Sets 23:46:11 0° 0° (N) 3,677 8.3 -28.1°
